Regional Weather Roundup
Issued by NWS

Home | Current Version | Previous Version | Graphics & Text | Print | Product List | Glossary On
Versions: 1 2 3 4 5 6 7 8 9 10 11 12 13 14 15 16 17 18 19 20 21 22 23 24 25 26 27 28 29 30 31 32 33 34 35 36 37 38 39 40 41 42 43 44 45 46 47 48 49 50
000
ASUS43 KMKX 021111
RWRWI

WISCONSIN REGIONAL WEATHER ROUNDUP
NATIONAL WEATHER SERVICE MILWAUKEE/SULLIVAN WI
600 AM CDT MON MAY 02 2016

NOTE: "FAIR" INDICATES FEW OR NO CLOUDS BELOW 12,000 FEET WITH NO
SIGNIFICANT WEATHER AND/OR OBSTRUCTIONS TO VISIBILITY.

WIZ001-002-006>008-014>016-023>028-021200-
NORTHWEST WISCONSIN

CITY           SKY/WX    TMP DP  RH WIND       PRES   REMARKS
SUPERIOR ARPT  PTCLDY    28  28  99 CALM      30.15S
ASHLAND        CLEAR     28  27  96 W3        30.15S
HAYWARD        CLEAR     29  26  89 NE5       30.12S WCI  24
SIREN          CLEAR     29  29  98 CALM      30.12S
CUMBERLAND     CLEAR     34  32  93 CALM      30.10S
RICE LAKE      CLEAR     35  33  92 CALM      30.12S
CHETEK         CLEAR     34  33  96 CALM      30.11S
LADYSMITH      CLEAR     33  31  95 CALM      30.13S
EAU CLAIRE     PTCLDY    35  34  96 CALM      30.11S
MENOMONIE      CLEAR     36  29  76 CALM      30.11S
NEW RICHMOND   CLEAR     35  34  96 CALM      30.11S
OSCEOLA        CLEAR     34  34 100 CALM      30.14S
$$

WIZ003>005-009-010-017-018-021200-
NORTH CENTRAL WISCONSIN

CITY           SKY/WX    TMP DP  RH WIND       PRES   REMARKS
MANITOWISH WTR CLEAR     29  29 100 CALM      30.13R
ARBOR VITAE    PTCLDY    32  30  93 CALM      30.13R
WOODRUFF       PTCLDY    32  30  93 CALM      30.13R
RHINELANDER    CLEAR     29  26  89 CALM      30.13R
EAGLE RIVER    PTCLDY    28  28 100 CALM      30.13R
LAND O LAKES   CLEAR     28  27  99 CALM      30.13S
PHILLIPS       CLEAR     30  29  96 CALM      30.11S
TOMAHAWK       CLEAR     27  26  96 CALM      30.13S
MEDFORD        CLEAR     32  32 100 CALM      30.12R
MERRILL        CLEAR     28  28 100 CALM      30.13S
$$

WIZ029-030-035-036-043>047-021200-
CENTRAL WISCONSIN

CITY           SKY/WX    TMP DP  RH WIND       PRES   REMARKS
WAUSAU         CLEAR     36  33  89 CALM      30.11R
MOSINEE        CLEAR     39  34  81 N3        30.12S
MARSHFIELD     CLEAR     36  31  82 CALM      30.11R
STEVENS POINT  PTCLDY    29  29  97 CALM      30.13S
WAUPACA        CLEAR     36  33  90 CALM      30.12S
WAUTOMA        CLEAR     31  30  96 CALM      30.12S
WISC RAPIDS    CLEAR     33  30  88 CALM      30.14R
CAMP DOUGLAS   FOG       28  28 100 CALM      30.11F VSB 1/4
$$

WIZ011>013-019>022-031-037>040-048>050-021200-
NORTHEAST WISCONSIN

CITY           SKY/WX    TMP DP  RH WIND       PRES   REMARKS
ANTIGO         CLEAR     31  29  95 CALM      30.11S
SHAWANO        CLEAR     35  32  88 CALM      30.12R
OCONTO         CLEAR     35  35 100 CALM      30.10S
STURGEON BAY   PTCLDY    37  32  81 N7        30.11F WCI  32
GREEN BAY      CLEAR     39  32  76 CALM      30.11R
MANITOWOC      CLEAR     38  34  85 NW5       30.10S WCI  34
APPLETON       CLEAR     37  30  75 N6        30.09R WCI  33
CLINTONVILLE   CLEAR     34  32  93 NW3       30.11S
OSHKOSH        CLEAR     38  33  82 NW3       30.10S
$$

WIZ032>034-041-042-053>061-021200-
SOUTHWEST WISCONSIN

CITY           SKY/WX    TMP DP  RH WIND       PRES   REMARKS
LA CROSSE      CLEAR     37  34  89 E5        30.12S WCI  33
SPARTA         CLEAR     29  28  96 CALM      30.13S
VIROQUA        CLEAR     40  37  89 CALM      30.10S
BOSCOBEL       FOG       36  35  96 CALM      30.12S VSB 1/4
PRAIRIE DU CHI FOG       40  39  96 CALM      30.12R VSB 1/4
PLATTEVILLE    PTCLDY    41  40  96 N7        30.09S
$$

WIZ056-057-062-063-064-067-068-021200-
SOUTH CENTRAL WISCONSIN

CITY           SKY/WX    TMP DP  RH WIND       PRES   REMARKS
REEDSBURG      FOG       32  32 100 CALM      30.11S VSB 1/2
BARABOO/DELLS  CLEAR     33  32  96 CALM      30.11S
LONE ROCK      FOG       35  34  96 W3        30.11S VSB 3/4
MINERAL POINT  PTCLDY    41  41 100 N3        30.08F
MADISON        PTCLDY    40  37  89 CALM      30.09F
MIDDLETON      CLEAR     41  39  91 CALM      30.10R
WATERTOWN      CLEAR     37  37 100 CALM      30.09R
MONROE         CLEAR     43  41  93 N8        30.07S
JANESVILLE     PTCLDY    45  43  93 N6        30.06F
$$

WIZ051-052-058>065-066-070>072-021200-
SOUTHEAST WISCONSIN

CITY           SKY/WX    TMP DP  RH WIND       PRES   REMARKS
MILWAUKEE      PTCLDY    40  36  86 N7        30.07R
WAUKESHA       CLEAR     39  36  87 N3        30.08S
MILWAUKEE/TIMM CLEAR     39  32  75 N3        30.08R
RACINE         CLEAR     41  37  86 NW5       30.10R
BURLINGTON     PTCLDY    41  39  94 N5        30.07S
KENOSHA        PTCLDY    42  38  85 N7        30.06R
FOND DU LAC    PTCLDY    37  35  92 NW5       30.09S WCI  33
SHEBOYGAN      CLEAR     39  33  79 N8        30.08S WCI  33
WEST BEND      CLEAR     37  34  87 CALM      30.08S
JUNEAU         CLEAR     39  37  92 NW3       30.11R
$$

LSZ147-162-021200-
LAKE SUPERIOR

STATION/POSITION TIME  TEMP    WIND        PRES    WAVE
                       AIR SEA DIR/SP/G            HT/PER
                 (UTC) (F)     (DEG/KT/KT) (MB)    (FT/S)
W MID LAKE BUOY  1050   37 36  150/  2/  2 1021.3S   1/ 5
DEVILS ISLAND    1100   39     180/  3/  3 1021.4R
SAXON HARBOR     1000   29     200/  3/  5 1020.3S
$$

LMZ867-665-643>646-021200-
LAKE MICHIGAN

STATION/POSITION TIME  TEMP    WIND        PRES    WAVE
                       AIR SEA DIR/SP/G            HT/PER
                 (UTC) (F)     (DEG/KT/KT) (MB)    (FT/S)
CHAMBERS ISLAND  1000   40     310/  3/  5 1019.3S
N MID LAKE BUOY  1050   39 38  350/  4/  4 1018.9R   0
NORTHPORT PIER   1000   40     300/  8/ 10 1019.0R
KEWAUNEE LAKESHO 1000   37     300/  5/  5 1018.5R
SHEBOYGAN LAKESH 1100   44     360/ 10/ 11 1019.2F
PORT WASHINGTON  1000   44     330/  6/  8 1019.0F
S MID LAKE BUOY  1050   42 40   30/ 10/ 12 1017.4R   1/ 5
KENOSHA   LAKESH 1100   43     330/  8/ 10 1017.9R
$$

TC  - TEMPERATURE IN CELSIUS
VSB - VISIBILITY IN STATUTE MILES
WCI - WIND CHILL INDEX
HX  - HEAT INDEX




USA.gov is the U.S. government's official web portal to all federal, state and local government web resources and services.